CZ-6A R/B, 60214

Orbit data source: Space-Track

CZ-6A R/B, 60214 is space debris in SSO originally from a launch on Thu, 04 Jul 2024 UTC launched from the Taiyaun Space Center, China (TSC). Debris objects in space refer to the collection of defunct objects orbiting the Earth. Examples of debris include non-operational satellites, rocket bodies, and fragments generated from explosions, collisions, or faulty payload assembly.

Loading next visibility...
Identifier
60214, 2024-126D
Orbit
SSO
Last TLE update
17 hours ago
Origin
Manufacturer
SAST
Mission
Spacecraft
Bus & Motor
CZ-6A STAGE 2, YF-115
Mass
~6,000 kg wet, ~6,000 kg dry
Launch date (UTC)
2024-07-04 (10 months ago)
Launch vehicle
Unknown
Launch site
Taiyaun Space Center, China (TSC)
Object type
Payload
Rocket body
Debris
Shape & HBR
Unknown
Radar Cross Section
Large (>1 m²)

Expand to show TLE details & history

TLE from 17 hours ago
0 CZ-6A R/B
1 60214U 24126D   25128.97670167  .00005720  00000-0  33173-3 0  9993
2 60214  97.8093 146.4802 0074951  63.1404 297.7461 15.10189196 46355
Epoch: 2025-05-08T23:26Z
Definitive object data (Epoch: 2025-05-08T23:26:27.024Z)
Latitude
-0.00006°
Longitude
-72.17186°
Altitude
514.864 km
Speed
7.619 km/s
True Right ascension
09h 45m 55s
True Declination
0° 00' 00"
Sunlit
Object was in daylight at TLE epoch
Visualization TLE readout
Latitude
-79.61466°
Longitude
-23.34738°
Altitude
605.283 km
Speed
7.533 km/s
Apparent Right ascension
12h 47m 49s
Apparent Declination
-60° 34' 26"
Sunlit
Object is in full shadow
Visualization observer readout
Local Sidereal Time
00:44:22
Azimuth
181.201° SSW
Elevation
-69.335°
Doppler factor
1
Orbital elements
Apogee altitude
584.416 km
Perigee altitude
480.822 km
Semi-major axis
6,910.756 km
Eccentricity
0.0074951
Inclination
97.8093°
RAAN
146.4802°
Arg. of periapsis
63.1404°
True anomaly
296.98267°
Mean anomaly
297.7461°
Eccentric anomaly
297.36472°
Mean motion
3.77794 °/min
BSTAR
0.00033173
Orbital period
95.29 mins
Loading maneuver chart data...
Loading SW <> Apogee altitude chart data...
Loading historical data...
Loading historical data...
Loading historical data...
Loading historical data...
Loading historical data...
Loading historical data...
Loading historical data...
Other satellites on launch #126 in the year 2024 (2024-07-04 UTC)

CZ-6A R/B Visibility forecast

Observer location: undefined°, undefined°

Span
Click to sort rows by Start time (UTC) header in descending order
Start Az.
Max El. time (UTC)
Max El. Az.
Max El.
End time (UTC)
End Az.
6 mins2025-05-10 01:00:52.575Z157.012° SSE2025-05-10 01:03:52.575Z49.56° ENE42.497°2025-05-10 01:06:52.575Z353.405° N
5 mins2025-05-10 14:10:52.575Z2.295° NNE2025-05-10 14:12:52.575Z270.449° WNW43.28°2025-05-10 14:15:52.575Z201.962° SSW
|